Location: Albert Place
(40.7505°N, 111.9230°W)
Time: 12:53:47
(UTC+00:00)

Cosmos 1626 Rocket - Pass Details

Date: 13 December 2025
Orbit: 596 x 625 km, 82.5° (Epoch: 17 January)

Event Time Altitude Azimuth Distance (km) Brightness Sun altitude
Rises 12:58:45 0° 187° (S) 2,889 7.1 -19.1°
Reaches altitude 10° 13:00:58 10° 188° (S) 1,985 6.2 -18.7°
Maximum altitude 13:05:22 85° 276° (W) 628 3.4 -17.9°
Drops below altitude 10° 13:09:47 10° 7° (N) 1,987 6.1 -17.1°
Sets 13:12:01 0° 8° (N) 2,892 6.9 -16.7°
